Location: Unspecified
(0.0000°N, 0.0000°E)
Time: 16:59:21
(UTC+00:00)

Vanguard 1 Rocket - Visible Passes

Search period start: 12 April 2021 00:00
Search period end: 22 April 2021 00:00
Orbit: 653 x 4223 km, 34.3° (Epoch: 11 April)

Date Brightness Start Highest point End Pass type
(mag) Time Alt. Az. Time Alt. Az. Time Alt. Az.
12 Apr 11.0 02:13:39 36° S 02:13:39 36° S 02:29:30 10° SE visible
12 Apr 11.4 04:30:56 14° SW 04:45:12 22° SSW 05:01:03 10° SSE visible
12 Apr 10.3 19:46:21 10° NNE 19:50:55 14° NE 19:51:25 14° NE visible
12 Apr 10.5 22:06:43 10° NW 22:08:41 19° NW 22:08:41 19° NW visible
13 Apr 11.4 01:06:21 25° SSE 01:06:21 25° SSE 01:14:43 10° SE visible
13 Apr 11.1 03:23:37 27° SSW 03:26:49 27° SSW 03:46:37 10° SSE visible
13 Apr 9.9 20:56:44 10° NNW 21:01:25 30° N 21:01:25 30° N visible
13 Apr 11.3 23:59:01 10° SE 23:59:01 10° SE 23:59:13 10° SE visible
14 Apr 11.1 02:16:17 31° S 02:16:17 31° S 02:31:57 10° SE visible
14 Apr 11.5 04:33:34 11° SW 04:50:11 21° S 05:05:17 10° SE visible
14 Apr 10.0 19:47:59 10° N 19:53:57 19° NE 19:54:12 19° NE visible
14 Apr 10.5 22:09:37 10° NW 22:11:28 19° NW 22:11:28 19° NW visible
15 Apr 11.4 01:08:56 23° SSE 01:08:56 23° SSE 01:16:56 10° SE visible
15 Apr 11.2 03:26:12 23° SSW 03:31:26 24° SSW 03:49:58 10° SE visible
15 Apr 9.6 20:59:23 10° NNW 21:04:16 36° N 21:04:16 36° N visible
16 Apr 11.4 00:01:33 10° SE 00:01:33 10° SE 23:21:33 - WNW visible
16 Apr 11.2 02:18:49 28° S 02:18:49 28° S 02:34:37 10° SE visible
16 Apr 11.5 04:37:37 10° SW 04:55:16 21° S 05:10:07 10° SE visible
16 Apr 9.7 19:50:06 10° N 19:56:47 26° NE 19:57:06 26° NE visible
16 Apr 10.5 22:12:42 10° NW 22:14:22 18° NW 22:14:22 18° NW visible
17 Apr 11.5 01:11:26 22° SSE 01:11:26 22° SSE 01:19:11 10° SE visible
17 Apr 11.3 03:28:42 20° SSW 03:36:21 22° S 03:53:55 10° SE visible
17 Apr 9.4 21:02:10 10° NW 21:07:14 43° NNW 21:07:14 43° NNW visible
18 Apr 11.3 02:21:18 25° S 02:21:18 25° S 02:37:39 10° SE visible
18 Apr 11.5 04:41:47 10° SW 05:00:15 23° S 05:15:18 10° SE visible
18 Apr 9.3 19:52:31 10° NNW 19:59:29 35° NE 20:00:07 35° NE visible
18 Apr 10.5 22:16:00 10° WNW 22:17:24 17° WNW 22:17:24 17° WNW visible
19 Apr 11.5 01:13:54 20° SSE 01:13:54 20° SSE 01:21:35 10° SE visible
19 Apr 11.4 03:31:11 17° SSW 03:41:27 22° S 03:58:29 10° SE visible
19 Apr 9.7 18:44:23 10° N 18:48:16 15° NE 18:53:01 10° ENE visible
19 Apr 9.2 21:05:09 10° NW 21:10:18 49° NW 21:10:18 49° NW visible
20 Apr 11.3 02:23:47 23° S 02:23:47 23° S 02:41:12 10° SE visible
20 Apr 11.5 04:45:15 10° SW 05:05:00 26° SSE 05:20:33 10° ESE visible
20 Apr 8.8 19:55:09 10° NNW 20:02:10 47° NE 20:03:14 46° ENE visible
20 Apr 10.6 22:19:32 10° WNW 22:20:32 15° WNW 22:20:32 15° WNW visible
21 Apr 11.5 01:16:24 19° SSE 01:16:24 19° SSE 01:24:14 10° SE visible
21 Apr 11.4 03:33:40 16° SSW 03:46:32 22° S 04:03:36 10° SE visible
21 Apr 9.3 18:46:11 10° N 18:51:07 22° NE 18:56:11 14° E visible
21 Apr 9.2 21:08:20 10° WNW 21:13:29 49° WNW 21:13:29 49° WNW visible
